Regional Weather Roundup
Issued by NWS Little Rock, AR

Home | Current Version | Previous Version | Text Only | Print | Product List | Glossary On
Versions: 1 2 3 4 5 6 7 8 9 10 11 12 13 14 15 16 17 18 19 20 21 22 23 24 25 26 27
000
ASUS44 KLZK 311405
RWRLZK

WEATHER ROUNDUP FOR ARKANSAS
NATIONAL WEATHER SERVICE LITTLE ROCK AR
900 AM CDT FRI OCT 31 2014

NOTE: "FAIR" INDICATES FEW OR NO CLOUDS BELOW 12,000 FEET WITH NO
SIGNIFICANT WEATHER AND/OR OBSTRUCTIONS TO VISIBILITY.

ARZ001-003-010-029-311500-
NORTHWEST ARKANSAS

CITY           SKY/WX    TMP DP  RH WIND       PRES   REMARKS
FAYETTEVILLE   CLOUDY    47  40  76 N8        30.30R
FORT SMITH     SUNNY     53  41  63 N12       30.28R
HARRISON       MOSUNNY   49  40  71 NW8       30.25R
BENTONVILLE    CLOUDY    48  37  66 N15G21    30.30R
ROGERS         CLOUDY    47  40  76 N12G20    30.30R
SILOAM SPGS    CLOUDY    46  36  66 N18       30.32R
HIGHFILL       LGT RAIN  48  41  76 N16       30.30R
SPRINGDALE     CLOUDY    48  41  76 N8G16     30.31R
$$

ARZ004-005-016-311500-
NORTH CENTRAL ARKANSAS

CITY           SKY/WX    TMP DP  RH WIND       PRES   REMARKS
BATESVILLE     SUNNY     52  43  71 NW6       30.20R
FLIPPIN        MOSUNNY   52  37  58 N9        30.25R
MTN HOME       MOSUNNY   49  41  74 N6        30.23R
$$

ARZ040-041-311500-
WEST CENTRAL ARKANSAS

CITY           SKY/WX    TMP DP  RH WIND       PRES   REMARKS
MENA           SUNNY     54  43  66 NW13G20   30.24R
MOUNT IDA      SUNNY     53  43  68 NW8       30.20R
$$

ARZ009-017-025-026-028-311500-
NORTHEAST ARKANSAS

CITY           SKY/WX    TMP DP  RH WIND       PRES   REMARKS
CORNING        FAIR      50  45  81 N16G22    30.18R
JONESBORO      SUNNY     51  45  79 N14G24    30.14R
NEWPORT        SUNNY     52  45  77 N20       30.17R
WALNUT RIDGE   MOSUNNY   52  43  71 N21       30.16R
BLYTHEVILLE    MOSUNNY   52  48  86 N21G26    30.12R
$$

ARZ022-023-033-042-044-311500-
CENTRAL ARKANSAS

CITY           SKY/WX    TMP DP  RH WIND       PRES   REMARKS
LITTLE ROCK    SUNNY     56  42  59 N18       30.19R
N LITTLE ROCK  SUNNY     54  46  73 NW9G22    30.19R
JACKSONVILLE   SUNNY     55  44  68 NW8       30.19R
SEARCY         SUNNY     55  44  66 N12G17    30.20R
HOT SPRINGS    SUNNY     56  42  59 N10       30.20R
RUSSELLVILLE   SUNNY     54  45  71 VRB5      30.22R
$$

ARZ036-311500-
EAST ARKANSAS

CITY           SKY/WX    TMP DP  RH WIND       PRES   REMARKS
WEST MEMPHIS   SUNNY     52  48  86 N14       30.10R
$$

ARZ050-053-066-070-073-311500-
SOUTHWEST ARKANSAS

CITY           SKY/WX    TMP DP  RH WIND       PRES   REMARKS
ARKADELPHIA    FAIR      58  48  69 N14       30.18R
CAMDEN         SUNNY     50  46  87 NE3       30.17R
TEXARKANA      SUNNY     55  44  66 NW9       30.20R
DE QUEEN       SUNNY     46  45  96 CALM      30.21R
$$

ARZ056-057-069-311500-
SOUTHEAST ARKANSAS

CITY           SKY/WX    TMP DP  RH WIND       PRES   REMARKS
PINE BLUFF     SUNNY     56  44  64 N16G26    30.15R
STUTTGART      SUNNY     55  45  67 N20G28    30.15R
MONTICELLO     SUNNY     55  45  68 NW8       30.12R

$$





USA.gov is the U.S. government's official web portal to all federal, state and local government web resources and services.